New York, NY

9:56 PM EST on February 22, 2018 (GMT -0500)
La Guardia

Weather History for KLGA - March, 2013

Change the Weather History Date:

Wednesday, March 27, 2013

  Actual Average Record
Temperature  
Mean Temperature 45 °F 46 °F  
Max Temperature 52 °F 54 °F 83 °F (1998)
Min Temperature 38 °F 38 °F 23 °F (2014)
Degree Days  
Heating Degree Days 20 19  
Month to date heating degree days 683 632  
Since 1 July heating degree days 3878 4061  
Cooling Degree Days 0 0  
Month to date cooling degree days 0 0  
Year to date cooling degree days 0 0  
Moisture  
Dew Point 24 °F    
Average Humidity 44    
Maximum Humidity 59    
Minimum Humidity 28    
Precipitation  
Precipitation 0.00 in 0.14 in 1.20 in (1983)
Month to date precipitation 2.29 3.43  
Year to date precipitation 8.13 9.36  
Snow  
Snow 0.00 in 0.10 in 0.90 in (1959)
Month to date snowfall 6.1 4.1  
Since 1 July snowfall 22.2 26.1  
Snow Depth 0.00 in    
Sea Level Pressure  
Sea Level Pressure 29.90 in    
Wind  
Wind Speed 14 mph (NW)    
Max Wind Speed 26 mph    
Max Gust Speed 32 mph    
Visibility 10 miles    
Events      
T = Trace of Precipitation, MM = Missing Value Source: NWS Daily Summary

Daily Weather History Graph

Daily Weather History Graph

Search for Another Location

Airport or City:

Trip Planner

Search our weather history database for the weather conditions in past years. The results will help you decide how hot, cold, wet, or windy it might be!

Date:

Astronomy

Mar. 27, 2013 Rise Set
Actual Time 6:46 AM EDT 7:15 PM EDT
Civil Twilight 6:19 AM EDT 7:42 PM EDT
Nautical Twilight 5:47 AM EDT 8:15 PM EDT
Astronomical Twilight 5:13 AM EDT 8:48 PM EDT
Moon 7:56 PM EDT (3/27) 6:36 AM EDT (3/27)
Length of Visible Light 13h 23m
Length of Day
12h 28m
Full, 100% of the Moon is Illuminated
Mar 27
Full
Apr 3
Last Quarter
Apr 10
New
Apr 18
First Quarter
Apr 25
Full

Hourly Weather History & Observations

Time (EDT) Temp. Windchill Dew Point Humidity Pressure Visibility Wind Dir Wind Speed Gust Speed Precip Events Conditions
12:51 AM 42.1 °F 37.1 °F 27.0 °F 55% 29.86 in 10.0 mi NW 8.1 mph - N/A   Clear
1:51 AM 41.0 °F 33.9 °F 25.0 °F 53% 29.87 in 10.0 mi WNW 12.7 mph - N/A   Clear
2:51 AM 39.9 °F 31.1 °F 24.1 °F 53% 29.86 in 10.0 mi NW 17.3 mph - N/A   Partly Cloudy
3:51 AM 39.0 °F 32.3 °F 24.1 °F 55% 29.86 in 10.0 mi NW 10.4 mph - N/A   Partly Cloudy
4:51 AM 39.0 °F 30.6 °F 24.1 °F 55% 29.86 in 10.0 mi NW 15.0 mph - N/A   Partly Cloudy
5:51 AM 39.0 °F 31.4 °F 23.0 °F 53% 29.88 in 10.0 mi NW 12.7 mph - N/A   Partly Cloudy
6:51 AM 37.9 °F 30.5 °F 21.9 °F 53% 29.90 in 10.0 mi WNW 11.5 mph - N/A   Partly Cloudy
7:51 AM 39.0 °F 31.4 °F 23.0 °F 53% 29.91 in 10.0 mi WNW 12.7 mph - N/A   Clear
8:51 AM 39.9 °F 32.5 °F 26.1 °F 58% 29.92 in 10.0 mi NW 12.7 mph 21.9 mph N/A   Clear
9:51 AM 43.0 °F 36.0 °F 26.1 °F 51% 29.92 in 10.0 mi NW 13.8 mph - N/A   Partly Cloudy
10:51 AM 45.0 °F 38.9 °F 26.1 °F 48% 29.91 in 10.0 mi NW 12.7 mph - N/A   Partly Cloudy
11:51 AM 48.2 °F - 24.8 °F 40% 29.90 in 10.0 mi NW 9.2 mph - N/A   Scattered Clouds
12:51 PM 48.0 °F - 21.0 °F 34% 29.89 in 10.0 mi NW 10.4 mph 19.6 mph N/A   Mostly Cloudy
1:51 PM 48.9 °F - 19.0 °F 31% 29.88 in 10.0 mi NW 12.7 mph - N/A   Mostly Cloudy
2:51 PM 48.9 °F - 21.9 °F 35% 29.87 in 10.0 mi WNW 10.4 mph - N/A   Mostly Cloudy
3:51 PM 51.1 °F - 19.0 °F 28% 29.86 in 10.0 mi NW 13.8 mph 19.6 mph N/A   Mostly Cloudy
4:51 PM 51.1 °F - 21.0 °F 31% 29.87 in 10.0 mi WNW 13.8 mph - N/A   Mostly Cloudy
5:51 PM 51.8 °F - 23.0 °F 33% 29.87 in 10.0 mi NW 12.7 mph - N/A   Mostly Cloudy
6:51 PM 48.9 °F - 23.0 °F 36% 29.90 in 10.0 mi NW 12.7 mph 25.3 mph N/A   Mostly Cloudy
7:51 PM 48.0 °F - 25.0 °F 41% 29.92 in 10.0 mi WNW 24.2 mph 28.8 mph N/A   Mostly Cloudy
8:51 PM 45.0 °F 37.6 °F 28.9 °F 53% 29.94 in 10.0 mi NW 17.3 mph 26.5 mph N/A   Scattered Clouds
9:51 PM 44.1 °F 36.2 °F 28.0 °F 53% 29.96 in 10.0 mi NW 18.4 mph - N/A   Scattered Clouds
10:51 PM 43.0 °F 35.4 °F 28.0 °F 56% 29.96 in 10.0 mi WNW 16.1 mph - N/A   Partly Cloudy
11:51 PM 42.1 °F 34.5 °F 28.9 °F 60% 29.97 in 10.0 mi WNW 15.0 mph - N/A   Partly Cloudy